User: anonymous   Login
Location: ??????
(42.0089°N, 44.3281°E)
Time: 01:39:55
(UTC+00:00)
Language:

DMSP B5D2-2 - Orbit

View from above orbital plane
View from above orbital plane
View from above satellite
View from above satellite

Ground track
Ground track

The orbit data is extracted from the following two-line orbital elements,

1 14506U 83113A   22019.52417142  .00000118  00000-0  63708-4 0  9990
2 14506  98.2859 214.7950 0010366 311.1921  68.5706 14.28198099985613
Epoch (UTC): 19 January 2022 12:34:48
Eccentricity: 0.0010366
inclination: 98.2859°
perigee height: 790 km
apogee height: 805 km
right ascension of ascending node: 214.7950°
argument of perigee: 311.1921°
revolutions per day: 14.28198099
mean anomaly at epoch: 68.5706°
orbit number at epoch: 98561

The dashed part of the orbit path shows where the satellite is in the earth's shadow,  

DLR